Weather History for KVAD - October, 2011

Change the Weather History Date:

Monday, October 17, 2011

  Actual Average Record
Temperature  
Mean Temperature 69 °F -  
Max Temperature 85 °F 77 °F 87 °F (2013)
Min Temperature 53 °F 56 °F 44 °F (2001)
Cooling Degree Days 4    
Growing Degree Days 19 (Base 50)    
Moisture  
Dew Point 56 °F    
Average Humidity 83    
Maximum Humidity 96    
Minimum Humidity 40    
Precipitation  
Precipitation 0.00 in - - ()
Sea Level Pressure  
Sea Level Pressure 30.02 in    
Wind  
Wind Speed 1 mph (SSE)    
Max Wind Speed 5 mph    
Max Gust Speed -    
Visibility 9 miles    
Events      
Averages and records for this station are not official NWS values.
T = Trace of Precipitation, MM = Missing Value Source: NWS Daily Summary

Daily Weather History Graph

Daily Weather History Graph

Search for Another Location

Airport or City:

Trip Planner

Search our weather history database for the weather conditions in past years. The results will help you decide how hot, cold, wet, or windy it might be!

Date:

Astronomy

Oct. 17, 2011 Rise Set
Actual Time 7:36 AM EDT 6:59 PM EDT
Civil Twilight 7:12 AM EDT 7:23 PM EDT
Nautical Twilight 6:44 AM EDT 7:51 PM EDT
Astronomical Twilight 6:16 AM EDT 8:19 PM EDT
Moon 10:54 PM EDT (10/17) 12:25 PM EDT (10/17)
Length of Visible Light 12h 11m
Length of Day
11h 22m
Waning Gibbous, 74% of the Moon is Illuminated
Oct 17
Waning Gibbous
Oct 19
Last Quarter
Oct 26
New
Nov 2
First Quarter
Nov 10
Full

Hourly Weather History & Observations

Time (EDT) Temp. Heat Index Dew Point Humidity Pressure Visibility Wind Dir Wind Speed Gust Speed Precip Events Conditions
12:08 AM 62.6 °F - 55.4 °F 77% 30.07 in 9.0 mi Calm Calm - N/A   Clear
12:42 AM 60.8 °F - 55.4 °F 82% 30.06 in 8.0 mi Calm Calm - N/A   Clear
12:55 AM 60.3 °F - 55.6 °F 85% 30.06 in 10.0 mi SSE 4.6 mph - N/A   Clear
1:50 AM 60.8 °F - 55.4 °F 82% 30.05 in 9.0 mi Calm Calm - N/A   Clear
1:55 AM 60.8 °F - 55.4 °F 82% 30.05 in 9.0 mi Calm Calm - N/A   Clear
2:23 AM 57.2 °F - 53.6 °F 88% 30.05 in 9.0 mi Calm Calm - N/A   Clear
2:50 AM 57.2 °F - 55.4 °F 94% 30.04 in 8.0 mi Calm Calm - N/A   Clear
2:55 AM 57.2 °F - 54.5 °F 91% 30.04 in 9.0 mi Calm Calm - N/A   Clear
3:20 AM 57.2 °F - 55.4 °F 94% 30.03 in 9.0 mi Calm Calm - N/A   Clear
3:24 AM 57.2 °F - 55.4 °F 94% 30.03 in 8.0 mi Calm Calm - N/A   Clear
3:47 AM 57.2 °F - 55.4 °F 94% 30.02 in 8.0 mi Calm Calm - N/A   Clear
3:55 AM 56.7 °F - 54.7 °F 93% 30.02 in 7.0 mi Calm Calm - N/A   Clear
4:28 AM 55.4 °F - 53.6 °F 94% 30.01 in 9.0 mi Calm Calm - N/A   Clear
4:55 AM 55.4 °F - 53.8 °F 94% 30.02 in 9.0 mi Calm Calm - N/A   Clear
5:00 AM 55.4 °F - 53.6 °F 94% 30.02 in 9.0 mi Calm Calm - N/A   Clear
5:08 AM 55.4 °F - 53.6 °F 94% 30.02 in 8.0 mi Calm Calm - N/A   Clear
5:23 AM 55.4 °F - 53.6 °F 94% 30.02 in 9.0 mi Calm Calm - N/A   Clear
5:55 AM 55.2 °F - 53.8 °F 95% 30.02 in 8.0 mi Calm Calm - N/A   Clear
6:18 AM 55.4 °F - 53.6 °F 94% 30.02 in 9.0 mi Calm Calm - N/A   Clear
6:51 AM 55.4 °F - 53.6 °F 94% 30.03 in 9.0 mi Calm Calm - N/A   Clear
6:55 AM 54.7 °F - 53.4 °F 96% 30.03 in 8.0 mi Calm Calm - N/A   Clear
7:01 AM 55.4 °F - 53.6 °F 94% 30.02 in 9.0 mi Calm Calm - N/A   Clear
7:16 AM 53.6 °F - 51.8 °F 94% 30.03 in 8.0 mi Calm Calm - N/A   Clear
7:17 AM 53.6 °F - 51.8 °F 94% 30.03 in 8.0 mi Calm Calm - N/A   Clear
8:55 AM 60.6 °F - 57.7 °F 90% 30.04 in 8.0 mi Calm Calm - N/A   Clear
10:55 AM 77.9 °F - 64.9 °F 64% 30.04 in 9.0 mi Variable 3.5 mph - N/A   Clear
11:55 AM 81.5 °F 82.2 °F 61.2 °F 50% 30.02 in 7.0 mi SSE 4.6 mph - N/A   Clear
12:55 PM 83.1 °F 83.0 °F 59.2 °F 44% 30.00 in 7.0 mi Variable 3.5 mph - N/A   Clear
3:55 PM 85.5 °F 84.8 °F 58.3 °F 40% 29.91 in 10.0 mi SSE 4.6 mph - N/A   Clear
5:55 PM 83.8 °F 83.3 °F 57.7 °F 41% 29.89 in 10.0 mi Calm Calm - N/A   Clear
6:55 PM 77.7 °F - 61.7 °F 58% 29.91 in 10.0 mi Calm Calm - N/A   Clear
9:55 PM 65.7 °F - 61.0 °F 85% 29.90 in 10.0 mi Calm Calm - N/A   Clear